EN

Hourly Weather Gogino

Today, 16 May, Sunday

Time Temperature Precipitation Wind Pressure Humidity
00:00 +10°C° 0 mm 2 mps 733 mmHg 96%
01:00 +10°C° 0 mm 2 mps 733 mmHg 97%
02:00 +9°C° 0 mm 2 mps 733 mmHg 98%
03:00 +10°C° 0 mm 2 mps 733 mmHg 97%
04:00 +10°C° 0 mm 2 mps 734 mmHg 97%
05:00 +10°C° 0 mm 2 mps 734 mmHg 96%
06:00 +12°C° 0 mm 3 mps 734 mmHg 90%
07:00 +14°C° 0 mm 3 mps 735 mmHg 84%
08:00 +16°C° 0 mm 3 mps 735 mmHg 78%
09:00 +17°C° 0.2 mm 3 mps 735 mmHg 73%
10:00 +18°C° 0.2 mm 3 mps 735 mmHg 67%
11:00 +19°C° 0.2 mm 3 mps 736 mmHg 62%
12:00 +20°C° 0.3 mm 3 mps 736 mmHg 62%
13:00 +20°C° 0.3 mm 3 mps 736 mmHg 63%
14:00 +20°C° 0.3 mm 3 mps 736 mmHg 63%
15:00 +20°C° 0.1 mm 2 mps 736 mmHg 63%
16:00 +20°C° 0.1 mm 2 mps 736 mmHg 62%
17:00 +20°C° 0.1 mm 2 mps 737 mmHg 62%
18:00 +19°C° 0 mm 1 mps 737 mmHg 70%
19:00 +16°C° 0 mm 1 mps 737 mmHg 78%
20:00 +14°C° 0 mm 1 mps 737 mmHg 86%
21:00 +14°C° 0 mm 1 mps 737 mmHg 88%
22:00 +13°C° 0 mm 1 mps 737 mmHg 89%
23:00 +13°C° 0 mm 1 mps 738 mmHg 91%

Tomorrow, 17 May, Monday

Time Temperature Precipitation Wind Pressure Humidity
00:00 +12°C° 0 mm 1 mps 738 mmHg 92%
01:00 +12°C° 0 mm 1 mps 738 mmHg 93%
02:00 +12°C° 0 mm 1 mps 738 mmHg 94%
03:00 +12°C° 0 mm 1 mps 738 mmHg 93%
04:00 +12°C° 0 mm 1 mps 738 mmHg 93%
05:00 +13°C° 0 mm 1 mps 738 mmHg 92%
06:00 +15°C° 0 mm 2 mps 738 mmHg 85%
07:00 +16°C° 0 mm 2 mps 738 mmHg 78%
08:00 +18°C° 0 mm 3 mps 738 mmHg 71%
09:00 +19°C° 0 mm 3 mps 738 mmHg 66%
10:00 +20°C° 0 mm 4 mps 738 mmHg 61%
11:00 +22°C° 0 mm 4 mps 738 mmHg 56%
12:00 +22°C° 0 mm 4 mps 738 mmHg 54%
13:00 +23°C° 0 mm 4 mps 737 mmHg 52%
14:00 +25°C° 0 mm 4 mps 737 mmHg 49%
15:00 +25°C° 0 mm 4 mps 737 mmHg 53%
16:00 +23°C° 0 mm 4 mps 736 mmHg 56%
17:00 +23°C° 0 mm 4 mps 736 mmHg 60%
18:00 +21°C° 0.4 mm 4 mps 735 mmHg 70%
19:00 +20°C° 0.4 mm 3 mps 735 mmHg 79%
20:00 +18°C° 0.4 mm 3 mps 735 mmHg 89%
21:00 +17°C° 0 mm 3 mps 735 mmHg 91%
22:00 +17°C° 0 mm 3 mps 734 mmHg 93%
23:00 +17°C° 0 mm 3 mps 734 mmHg 95%

Day after tomorrow, 18 May, Tuesday

Time Temperature Precipitation Wind Pressure Humidity
00:00 +16°C° 0 mm 3 mps 734 mmHg 95%
01:00 +16°C° 0 mm 3 mps 734 mmHg 96%
02:00 +16°C° 0 mm 3 mps 733 mmHg 96%
03:00 +16°C° 0 mm 3 mps 733 mmHg 95%
04:00 +16°C° 0 mm 3 mps 733 mmHg 95%
05:00 +15°C° 0 mm 4 mps 733 mmHg 94%
06:00 +17°C° 0 mm 4 mps 733 mmHg 88%
07:00 +19°C° 0 mm 4 mps 733 mmHg 83%
08:00 +20°C° 0 mm 4 mps 732 mmHg 78%
09:00 +21°C° 0 mm 5 mps 732 mmHg 71%
10:00 +23°C° 0 mm 6 mps 732 mmHg 65%
11:00 +24°C° 0 mm 6 mps 732 mmHg 59%
12:00 +26°C° 0.1 mm 6 mps 732 mmHg 59%
13:00 +26°C° 0.1 mm 6 mps 732 mmHg 60%
14:00 +26°C° 0.1 mm 6 mps 732 mmHg 60%
15:00 +24°C° 0.5 mm 6 mps 732 mmHg 64%
16:00 +23°C° 0.5 mm 6 mps 732 mmHg 68%
17:00 +22°C° 0.5 mm 5 mps 732 mmHg 71%
18:00 +21°C° 0.3 mm 5 mps 732 mmHg 76%
19:00 +19°C° 0.3 mm 4 mps 733 mmHg 80%
20:00 +18°C° 0.3 mm 4 mps 733 mmHg 85%
21:00 +17°C° 0.3 mm 3 mps 733 mmHg 87%
22:00 +17°C° 0.3 mm 2 mps 733 mmHg 89%
23:00 +16°C° 0.3 mm 2 mps 733 mmHg 91%

19 May, Wednesday

Time Temperature Precipitation Wind Pressure Humidity
00:00 +16°C° 0 mm 2 mps 733 mmHg 92%
01:00 +15°C° 0 mm 2 mps 732 mmHg 93%
02:00 +15°C° 0 mm 2 mps 732 mmHg 95%
03:00 +15°C° 0 mm 2 mps 732 mmHg 95%
04:00 +15°C° 0 mm 2 mps 732 mmHg 95%
05:00 +16°C° 0 mm 1 mps 732 mmHg 95%
06:00 +17°C° 0 mm 2 mps 731 mmHg 89%
07:00 +19°C° 0 mm 3 mps 731 mmHg 82%
08:00 +21°C° 0 mm 4 mps 731 mmHg 76%
09:00 +22°C° 0 mm 4 mps 731 mmHg 68%
10:00 +23°C° 0 mm 5 mps 731 mmHg 59%
11:00 +24°C° 0 mm 6 mps 731 mmHg 50%
12:00 +24°C° 0 mm 6 mps 731 mmHg 50%
13:00 +26°C° 0 mm 6 mps 731 mmHg 50%
14:00 +26°C° 0 mm 6 mps 731 mmHg 49%
15:00 +25°C° 0.1 mm 5 mps 730 mmHg 55%
16:00 +24°C° 0.1 mm 3 mps 730 mmHg 61%
17:00 +23°C° 0.1 mm 2 mps 730 mmHg 67%
18:00 +20°C° 1.5 mm 2 mps 730 mmHg 76%
19:00 +18°C° 1.5 mm 2 mps 729 mmHg 85%
20:00 +16°C° 1.5 mm 2 mps 729 mmHg 94%
21:00 +16°C° 0.1 mm 3 mps 730 mmHg 95%
22:00 +14°C° 0.1 mm 3 mps 730 mmHg 96%
23:00 +14°C° 0.1 mm 3 mps 730 mmHg 97%

20 May, Thursday

Time Temperature Precipitation Wind Pressure Humidity
00:00 +14°C° 0 mm 3 mps 730 mmHg 95%
01:00 +14°C° 0 mm 3 mps 730 mmHg 94%
02:00 +14°C° 0 mm 3 mps 730 mmHg 92%
03:00 +13°C° 0 mm 3 mps 730 mmHg 93%
04:00 +13°C° 0 mm 3 mps 730 mmHg 93%
05:00 +13°C° 0 mm 3 mps 730 mmHg 93%
06:00 +13°C° 0 mm 3 mps 730 mmHg 90%
07:00 +14°C° 0 mm 3 mps 729 mmHg 88%
08:00 +14°C° 0 mm 3 mps 729 mmHg 85%
09:00 +16°C° 0.2 mm 3 mps 729 mmHg 78%
10:00 +17°C° 0.2 mm 3 mps 729 mmHg 72%
11:00 +19°C° 0.2 mm 3 mps 729 mmHg 65%
12:00 +18°C° 1.1 mm 3 mps 729 mmHg 68%
13:00 +18°C° 1.1 mm 3 mps 729 mmHg 71%
14:00 +18°C° 1.1 mm 3 mps 729 mmHg 74%
15:00 +17°C° 0.9 mm 3 mps 729 mmHg 78%
16:00 +17°C° 0.9 mm 3 mps 729 mmHg 82%
17:00 +15°C° 0.9 mm 4 mps 729 mmHg 86%
18:00 +14°C° 0.2 mm 4 mps 730 mmHg 89%
19:00 +12°C° 0.2 mm 4 mps 730 mmHg 91%
20:00 +11°C° 0.2 mm 4 mps 730 mmHg 93%
21:00 +11°C° 0 mm 4 mps 731 mmHg 94%
22:00 +10°C° 0 mm 4 mps 732 mmHg 94%
23:00 +10°C° 0 mm 4 mps 732 mmHg 94%

21 May, Friday

Time Temperature Precipitation Wind Pressure Humidity
00:00 +10°C° 0.1 mm 4 mps 733 mmHg 94%
01:00 +8°C° 0.1 mm 4 mps 733 mmHg 94%
02:00 +8°C° 0.1 mm 4 mps 734 mmHg 94%
03:00 +9°C° 0 mm 3 mps 734 mmHg 94%
04:00 +8°C° 0 mm 3 mps 735 mmHg 94%
05:00 +8°C° 0 mm 2 mps 735 mmHg 94%
06:00 +9°C° 0 mm 2 mps 736 mmHg 88%
07:00 +10°C° 0 mm 2 mps 736 mmHg 82%
08:00 +12°C° 0 mm 2 mps 736 mmHg 76%
09:00 +14°C° 0 mm 1 mps 736 mmHg 67%
10:00 +16°C° 0 mm 1 mps 736 mmHg 58%
11:00 +19°C° 0 mm 1 mps 736 mmHg 49%
12:00 +19°C° 0 mm 1 mps 735 mmHg 49%
13:00 +18°C° 0 mm 1 mps 735 mmHg 49%
14:00 +18°C° 0 mm 1 mps 734 mmHg 49%
15:00 +16°C° 0.5 mm 1 mps 734 mmHg 59%
16:00 +15°C° 0.5 mm 1 mps 734 mmHg 68%
17:00 +13°C° 0.5 mm 1 mps 733 mmHg 78%
18:00 +13°C° 0.6 mm 1 mps 733 mmHg 81%
19:00 +12°C° 0.6 mm 1 mps 733 mmHg 84%
20:00 +11°C° 0.6 mm 1 mps 733 mmHg 87%
21:00 +11°C° 0 mm 1 mps 733 mmHg 87%
22:00 +9°C° 0 mm 2 mps 733 mmHg 88%
23:00 +9°C° 0 mm 2 mps 734 mmHg 89%
Show more